Other Public Products
Issued by NWS Grand Forks, ND

Home | Current Version | Previous Version | Graphics & Text | Print | Product List | Glossary On
Versions: 1 2 3 4 5 6 7 8 9 10 11 12 13 14 15 16 17 18 19 20 21 22 23 24 25 26 27 28 29 30 31 32 33 34 35 36 37 38 39 40 41 42 43 44 45 46 47 48 49 50
095
FPUS83 KFGF 101910
OPUFGF
PRAIRIE TO PINES WEATHER ROUNDUP
NATIONAL WEATHER SERVICE EASTERN NORTH DAKOTA/GRAND FORKS ND
100 PM CST SAT DEC 10 2016

 **SATELLITE DATA USED TO AUGMENT SKY COVER AT AUTOMATED STATIONS**
 *****  WEATHER ACROSS EASTERN NORTH DAKOTA  *****

CITY           SKY/WX    TMP DP  RH WIND       PRES   REMARKS
GRAND FORKS    CLOUDY    -2  -8  76 S5        30.39F WCI -12
GRAND FORKS AF MOSUNNY   -3 -11  69 SE3       30.38F
GRAND CITY NWS NOT AVBL
BUXTON         NOT AVBL
DEVILS LAKE    CLOUDY    -5  -8  87 S9        30.29F WCI -22
FARGO          PTSUNNY    1  -8  66 E7        30.37F WCI -12
WAHPETON ARPT  CLOUDY     0  -8  71 SE3       30.36F
$$

 *****  WEATHER ACROSS CENTRAL AND WESTERN NORTH DAKOTA  *****

CITY           SKY/WX    TMP DP  RH WIND       PRES   REMARKS
JAMESTOWN      CLOUDY    -3  -8  79 SE10      30.26F WCI -20
BISMARCK       FLURRIES  -8 -10  91 E7        30.21F WCI -23
MINOT          CLOUDY    -9 -14  78 E6        30.20F WCI -22
MINOT AFB      CLOUDY   -12 -18  77 E7        30.20F WCI -28
GARRISON         N/A     -6 -10  83 SE10      30.15F WCI -24
WILLISTON      LGT SNOW   0  -7  72 SE13      30.09F WCI -18
DICKINSON      CLOUDY    -2  -8  76 SE16      29.97F WCI -23
HETTINGER      CLOUDY    -2  -7  79 E15       29.98F WCI -22
$$

 *****  OTHER OBSERVATIONS NORTHEAST NORTH DAKOTA  *****

CITY           SKY/WX    TMP DP  RH WIND       PRES   REMARKS
WALHALLA         N/A     -2  -2 100 E3        30.38F
LANGDON        FAIR      -4  -9  77 S7        30.29S WCI -18
CAVALIER         N/A     -4 -11  71 SE5       30.39F WCI -15
GRAFTON        FAIR      -6 -11  77 SE5       30.42F WCI -17
CANDO          FAIR      -4  -9  77 CALM      30.32F
FORT TOTTEN      N/A     -6 -12  75 S7        29.95S WCI -20
ROLLA          FAIR      -9 -15  77 S10       30.25F WCI -28
RUGBY            N/A     -9 -13  84 SE6       30.27F WCI -23
 ***** THE ABOVE OBSERVATIONS ARE NON NWS ARE NOT QUALITY
        CONTROLLED AND MAY MIS-REPORT RAIN FOR SNOW...
$$

 *****  OTHER OBSERVATIONS SOUTHEAST NORTH DAKOTA *****

CITY           SKY/WX    TMP DP  RH WIND       PRES   REMARKS
COOPERSTOWN    FAIR      -4  -8  84 SE8       30.31F WCI -19
VALLEY CITY    CLOUDY    -2  -8  78 SE12      30.31F WCI -20
OAKES          NOT AVBL
GWINNER        CLOUDY     0  -6  78 E7        30.31F WCI -13
SHEYENNE NWR     N/A     -2 -12  64 SE6       29.95S WCI -14
BUFFALO        NOT AVBL
WYNDMERE       NOT AVBL
 ***** THE ABOVE OBSERVATIONS ARE NON NWS ARE NOT QUALITY
       CONTROLLED AND MAY MIS-REPORT RAIN FOR SNOW...
$$

  *****  WEATHER ACROSS NORTHERN MINNESOTA  *****

CITY           SKY/WX    TMP DP  RH WIND       PRES   REMARKS
FLAG ISLAND    SUNNY      0  -4  85 CALM      30.35F
WARROAD        SUNNY     -2  -8  78 CALM      30.36F
ROSEAU         SUNNY     -2  -9  71 CALM      30.37F
HALLOCK        SUNNY     -4  -9  77 S5        30.40S WCI -15
THF RVR FALLS  MOSUNNY    3  -6  66 CALM      30.37F
HALSTAD          N/A     -5  -9  80 SE2         N/A
FOSSTON        SUNNY      1  -8  66 N3        30.34F
BAUDETTE       MOSUNNY    0  -4  83 CALM      30.34F
WASKISH        PTSUNNY    3  -2  78 CALM      30.34F
CROOKSTON      SUNNY     -2  -8  78 SE3       30.40F
$$
  *****  WEATHER ACROSS CENTRAL AND WEST MINNESOTA  *****

CITY           SKY/WX    TMP DP  RH WIND       PRES   REMARKS
BEMIDJI        MOSUNNY   -1  -6  80 SE3       30.31F
PARK RAPIDS    CLOUDY     0  -7  72 S7        30.31F WCI -13
WADENA         CLOUDY     0  -8  71 CALM      30.32F
DETROIT LAKES  CLOUDY     0  -4  85 SE3       30.33F
MOORHEAD       PTSUNNY    0  -9  65 CALM      30.38F
FERGUS FALLS   CLOUDY    -2  -8  78 SE3       30.40F
ELBOW LAKE     LGT SNOW  -3  -6  86 SE3       30.34F
MORRIS MN      CLOUDY     1  -4  78 CALM      30.33F
STAPLES        NOT AVBL
WHEATON        CLOUDY     1  -2  85 E5        30.37F HAZE    WCI  -8
$$
  *****  WEATHER ELSEWHERE ACROSS MINNESOTA  *****

CITY           SKY/WX    TMP DP  RH WIND       PRES   REMARKS
DULUTH         MOSUNNY    4  -4  69 CALM      30.31F
INTRNTL FALLS  MOSUNNY    3  -3  76 CALM      30.34F
ELY            PTSUNNY    3  -6  66 SW5       30.31F WCI  -6
CLOQUET        CLOUDY     5  -6  61 W3        30.33F
BRAINERD       CLOUDY     6  -1  73 S6        30.33F WCI  -4
HIBBING        FLURRIES   2  -7  66 NW3       30.33S
ALEXANDRIA     CLOUDY     1  -4  79 SE5       30.32F WCI  -9
SAINT CLOUD    PTSUNNY    7   0  73 SW6       30.36F WCI  -3
MINNEAPOLIS    PTSUNNY   11   0  61 SE5       30.38F WCI   3
$$

  *****  WEATHER ACROSS SOUTH DAKOTA  *****

CITY           SKY/WX    TMP DP  RH WIND       PRES   REMARKS
SIOUX FALLS    LGT SNOW  14  10  84 E14       30.21F FOG     WCI  -1
BROOKINGS      LGT SNOW   9   3  78 E15       30.20F VSB 1   WCI  -8
WATERTOWN      SNOW       2  -2  83 E9        30.21F VSB 1/2 WCI -13
HURON          LGT SNOW  11   7  84 E14       30.17F VSB 3/4 WCI  -5
SISSETON         N/A      1  -5  75 SE6       30.31F WCI -10
ABERDEEN       LGT SNOW   5  -3  69 NE10      30.24F WCI -10
MITCHELL       CLOUDY    15  11  83 SE17      30.16F WCI  -1
PIERRE         FLURRIES   6   1  80 E14       30.05F WCI -11
MOBRIDGE       LGT SNOW   2  -6  69 E13       30.10F WCI -15
RAPID CITY     CLOUDY     5   1  83 SE9       29.84F WCI  -9
$$

  *****  SOME WEATHER IN NEARBY STATES *****

CITY           SKY/WX    TMP DP  RH WIND       PRES   REMARKS
GLASGOW MT     CLOUDY     1  -6  72 E18G28    29.89F WCI -20
GREAT FALLS MT CLOUDY     6   2  83 SW3       29.67F
CHEYENNE WY    CLOUDY    48  23  37 W14G23    29.79F
SCOTTSBLUFF NE CLOUDY    23  16  74 SE5       29.79F WCI  17
OMAHA NE       CLOUDY    30  16  56 S16       30.22F WCI  19
DES MOINES IA  FLURRIES  24  20  84 SE9       30.31F WCI  14
DAVENPORT IA   CLOUDY    25  13  60 SE9       30.41F WCI  15
CHICAGO IL     CLOUDY    23  12  62 SW9       30.45F WCI  13
EAU CLAIRE WI  CLOUDY    12   3  67 VRB3      30.37F
LA CROSSE WI   CLOUDY    16   6  65 CALM      30.40F
$$

  *****  SOME NATIONAL WEATHER *****

CITY           SKY/WX    TMP DP  RH WIND       PRES   REMARKS
LA GUARDIA NY  CLOUDY    36  18  48 NW16      30.34S
RALEIGH NC     MOSUNNY   41  10  28 W7        30.47F
ATLANTA GA     SUNNY     47  15  27 VRB5      30.43F
NEW ORLEANS LA MOSUNNY   50  25  37 NE10      30.46F
OKLAHOMA CITY  CLOUDY    42  22  44 S21G29    30.19F
ALBUQUERQUE NM PTSUNNY   44  30  57 S8        30.19F
SALT LAKE CITY CLOUDY    44  38  79 N5        29.91F
LOS ANGELES CA PTSUNNY   61  54  77 VRB3      30.18F HAZE
BOISE ID       FOG       34  34 100 CALM      29.88S VSB 1/4
SEATTLE WA     CLOUDY    43  37  79 S10       29.85F
$$

*** WEATHER ACROSS MANITOBA...SASKATCHEWAN AND ONTARIO ***
                ***ONTARIO***

CITY           SKY/WX    TMP DP  RH WIND       PRES   REMARKS
GERALDTON      FLURRIES   3  -4  72 VRB2      30.27F
THUNDER BAY    MOSUNNY   10  -2  56 NW6       30.36F WCI   1
SIOUX LOOKOUT  CRYSTALS  -2  -9  71 N5        30.31F WCI -12
TORONTO        PTSUNNY   28  14  54 W25       30.29F WCI  14
BIG TROUT LK   SUNNY     -8 -13  77 W8        30.30F WCI -23
PICKLE LAKE    FLURRIES  -6 -11  77 W7        30.28F WCI -20
DRYDEN         PTSUNNY   -2  -8  78 W7        30.30F WCI -16
KENORA         PTSUNNY   -2  -6  84 SW3       30.31F
$$
                *** MANITOBA***

CITY           SKY/WX    TMP DP  RH WIND       PRES   REMARKS
BRANDON        MOSUNNY  -11 -17  77 W8        30.29F WCI -28
DAUPHIN        SUNNY     -9 -17  70 W2        30.32F
ISLAND LAKE    FLURRIES  -2  -8  78 SW5       30.33F WCI -12
PILOT MOUND      N/A    -11 -15  84 S7          N/A  WCI -26
THE PAS        MOSUNNY   -6 -13  71 S3        30.28F
THOMPSON       MOSUNNY   -4  -9  77 SW12      30.23F WCI -22
WINNIPEG       MOSUNNY   -6 -13  71 NW2       30.40F
LYNN LAKE      CLOUDY    -8 -11  84 SW7       30.12F WCI -22
CHURCHILL      CRYSTALS  -9 -17  70 SW13      30.17F WCI -30
GILLAM         FLURRIES   1  -4  78 SW10      30.25F WCI -14
$$
                ***SASKATCHEWAN***

CITY           SKY/WX    TMP DP  RH WIND       PRES   REMARKS
ESTEVAN        FLURRIES  -9 -15  77 E12       30.13F WCI -29
KINDERSLEY     CRYSTALS   0  -6  78 SE16      29.93F WCI -21
LLOYDMINSTER   CRYSTALS  -9 -15  77 E7        30.02F WCI -24
PRINCE ALBERT  MOSUNNY   -6 -11  77 NE5       30.18F WCI -17
REGINA         MOSUNNY   -8 -13  77 E14       30.09F WCI -28
YORKTON        SUNNY     -8 -13  77 S6        30.20F WCC1F1C2F2C3F3C4F4C5F5C6F6C7F7C8F8C9F9CaFaCbFbCcFcCdFdCe!



USA.gov is the U.S. government's official web portal to all federal, state and local government web resources and services.